Year,Month,Day,Hour,Minute,Value (Times are PST for temperature in C)
2011,05,17,00,00,6.40
2011,05,17,00,01,6.30
2011,05,17,00,02,6.30
2011,05,17,00,03,6.20
2011,05,17,00,04,6.20
2011,05,17,00,05,6.20
2011,05,17,00,06,6.20
2011,05,17,00,07,6.20
2011,05,17,00,08,6.10
2011,05,17,00,09,6.10
2011,05,17,00,10,6.20
2011,05,17,00,11,6.20
2011,05,17,00,12,6.10
2011,05,17,00,13,6.10
2011,05,17,00,14,6.10
2011,05,17,00,15,6.10
2011,05,17,00,16,6.10
2011,05,17,00,17,6.10
2011,05,17,00,18,6.00
2011,05,17,00,19,6.00
2011,05,17,00,20,6.00
2011,05,17,00,21,6.00
2011,05,17,00,22,5.90
2011,05,17,00,23,5.90
2011,05,17,00,24,5.90
2011,05,17,00,25,5.80
2011,05,17,00,26,5.80
2011,05,17,00,27,5.80
2011,05,17,00,28,5.70
2011,05,17,00,29,5.70
2011,05,17,00,30,5.70
2011,05,17,00,31,5.70
2011,05,17,00,32,5.70
2011,05,17,00,33,5.70
2011,05,17,00,34,5.60
2011,05,17,00,35,5.60
2011,05,17,00,36,5.60
2011,05,17,00,37,5.60
2011,05,17,00,38,5.50
2011,05,17,00,39,5.50
2011,05,17,00,40,5.50
2011,05,17,00,41,5.40
2011,05,17,00,42,5.40
2011,05,17,00,43,5.30
2011,05,17,00,44,5.30
2011,05,17,00,45,5.30
2011,05,17,00,46,5.30
2011,05,17,00,47,5.30
2011,05,17,00,48,5.30
2011,05,17,00,49,5.30
2011,05,17,00,50,5.30
2011,05,17,00,51,5.20
2011,05,17,00,52,5.20
2011,05,17,00,53,5.20
2011,05,17,00,54,5.20
2011,05,17,00,55,5.10
2011,05,17,00,56,5.10
2011,05,17,00,57,5.10
2011,05,17,00,58,5.10
2011,05,17,00,59,5.10
2011,05,17,01,00,5.10
2011,05,17,01,01,5.10
2011,05,17,01,02,4.90
2011,05,17,01,03,4.90
2011,05,17,01,04,4.90
2011,05,17,01,05,4.90
2011,05,17,01,06,4.90
2011,05,17,01,07,4.90
2011,05,17,01,08,4.90
2011,05,17,01,09,4.90
2011,05,17,01,10,4.90
2011,05,17,01,11,5.00
2011,05,17,01,12,5.00
2011,05,17,01,13,4.90
2011,05,17,01,14,4.90
2011,05,17,01,15,4.90
2011,05,17,01,16,4.90
2011,05,17,01,17,4.90
2011,05,17,01,18,4.90
2011,05,17,01,19,4.90
2011,05,17,01,20,4.90
2011,05,17,01,21,4.90
2011,05,17,01,22,4.90
2011,05,17,01,23,4.90
2011,05,17,01,24,5.00
2011,05,17,01,25,5.10
2011,05,17,01,26,5.10
2011,05,17,01,27,4.90
2011,05,17,01,28,4.90
2011,05,17,01,29,4.90
2011,05,17,01,30,4.90
2011,05,17,01,31,4.90
2011,05,17,01,32,4.90
2011,05,17,01,33,4.90
2011,05,17,01,34,4.90
2011,05,17,01,35,4.90
2011,05,17,01,36,4.80
2011,05,17,01,37,4.80
2011,05,17,01,38,4.80
2011,05,17,01,39,4.80
2011,05,17,01,40,4.80
2011,05,17,01,41,4.70
2011,05,17,01,42,4.70
2011,05,17,01,43,4.70
2011,05,17,01,44,4.70
2011,05,17,01,45,4.70
2011,05,17,01,46,4.70
2011,05,17,01,47,4.70
2011,05,17,01,48,4.70
2011,05,17,01,49,4.60
2011,05,17,01,50,4.60
2011,05,17,01,51,4.60
2011,05,17,01,52,4.60
2011,05,17,01,53,4.60
2011,05,17,01,54,4.60
2011,05,17,01,55,4.60
2011,05,17,01,56,4.60
2011,05,17,01,57,4.60
2011,05,17,01,58,4.60
2011,05,17,01,59,4.60
2011,05,17,02,00,4.60
2011,05,17,02,01,4.60
2011,05,17,02,02,4.60
2011,05,17,02,03,4.60
2011,05,17,02,04,4.60
2011,05,17,02,05,4.60
2011,05,17,02,06,4.60
2011,05,17,02,07,4.60
2011,05,17,02,08,4.60
2011,05,17,02,09,4.60
2011,05,17,02,10,4.60
2011,05,17,02,11,4.60
2011,05,17,02,12,4.60
2011,05,17,02,13,4.60
2011,05,17,02,14,4.60
2011,05,17,02,15,4.50
2011,05,17,02,16,4.50
2011,05,17,02,17,4.50
2011,05,17,02,18,4.50
2011,05,17,02,19,4.40
2011,05,17,02,20,4.40
2011,05,17,02,21,4.40
2011,05,17,02,22,4.30
2011,05,17,02,23,4.30
2011,05,17,02,24,4.30
2011,05,17,02,25,4.30
2011,05,17,02,26,4.30
2011,05,17,02,27,4.30
2011,05,17,02,28,4.30
2011,05,17,02,29,4.30
2011,05,17,02,30,4.30
2011,05,17,02,31,4.30
2011,05,17,02,32,4.20
2011,05,17,02,33,4.20
2011,05,17,02,34,4.20
2011,05,17,02,35,4.20
2011,05,17,02,36,4.20
2011,05,17,02,37,4.20
2011,05,17,02,38,4.20
2011,05,17,02,39,4.20
2011,05,17,02,40,4.20
2011,05,17,02,41,4.20
2011,05,17,02,42,4.20
2011,05,17,02,43,4.20
2011,05,17,02,44,4.20
2011,05,17,02,45,4.20
2011,05,17,02,46,4.20
2011,05,17,02,47,4.20
2011,05,17,02,48,4.20
2011,05,17,02,49,4.20
2011,05,17,02,50,4.20
2011,05,17,02,51,4.20
2011,05,17,02,52,4.20
2011,05,17,02,53,4.20
2011,05,17,02,54,4.20
2011,05,17,02,55,4.20
2011,05,17,02,56,4.20
2011,05,17,02,57,4.20
2011,05,17,02,58,4.20
2011,05,17,02,59,4.20
2011,05,17,03,00,4.20
2011,05,17,03,01,4.20
2011,05,17,03,02,4.20
2011,05,17,03,03,4.20
2011,05,17,03,04,4.20
2011,05,17,03,05,4.20
2011,05,17,03,06,4.20
2011,05,17,03,07,4.10
2011,05,17,03,08,4.10
2011,05,17,03,09,4.10
2011,05,17,03,10,4.00
2011,05,17,03,11,4.00
2011,05,17,03,12,4.00
2011,05,17,03,13,4.00
2011,05,17,03,14,4.00
2011,05,17,03,15,4.00
2011,05,17,03,16,4.00
2011,05,17,03,17,4.00
2011,05,17,03,18,4.00
2011,05,17,03,19,4.00
2011,05,17,03,20,4.00
2011,05,17,03,21,4.00
2011,05,17,03,22,4.00
2011,05,17,03,23,3.90
2011,05,17,03,24,3.80
2011,05,17,03,25,3.80
2011,05,17,03,26,3.80
2011,05,17,03,27,3.80
2011,05,17,03,28,3.80
2011,05,17,03,29,3.70
2011,05,17,03,30,3.70
2011,05,17,03,31,3.60
2011,05,17,03,32,3.60
2011,05,17,03,33,3.60
2011,05,17,03,34,3.50
2011,05,17,03,35,3.50
2011,05,17,03,36,3.50
2011,05,17,03,37,3.50
2011,05,17,03,38,3.60
2011,05,17,03,39,3.60
2011,05,17,03,40,3.70
2011,05,17,03,41,3.80
2011,05,17,03,42,3.80
2011,05,17,03,43,3.80
2011,05,17,03,44,3.80
2011,05,17,03,45,3.90
2011,05,17,03,46,3.90
2011,05,17,03,47,3.90
2011,05,17,03,48,3.80
2011,05,17,03,49,3.80
2011,05,17,03,50,3.80
2011,05,17,03,51,3.70
2011,05,17,03,52,3.70
2011,05,17,03,53,3.60
2011,05,17,03,54,3.50
2011,05,17,03,55,3.50
2011,05,17,03,56,3.50
2011,05,17,03,57,3.40
2011,05,17,03,58,3.50
2011,05,17,03,59,3.50
2011,05,17,04,00,3.60
2011,05,17,04,01,3.60
2011,05,17,04,02,3.60
2011,05,17,04,03,3.70
2011,05,17,04,04,3.70
2011,05,17,04,05,3.80
2011,05,17,04,06,3.80
2011,05,17,04,07,3.80
2011,05,17,04,08,3.80
2011,05,17,04,09,3.90
2011,05,17,04,10,3.90
2011,05,17,04,11,3.90
2011,05,17,04,12,4.00
2011,05,17,04,13,4.00
2011,05,17,04,14,4.00
2011,05,17,04,15,4.00
2011,05,17,04,16,4.00
2011,05,17,04,17,4.00
2011,05,17,04,18,4.00
2011,05,17,04,19,4.00
2011,05,17,04,20,4.00
2011,05,17,04,21,4.00
2011,05,17,04,22,3.90
2011,05,17,04,23,3.90
2011,05,17,04,24,3.90
2011,05,17,04,25,3.90
2011,05,17,04,26,3.90
2011,05,17,04,27,3.90
2011,05,17,04,28,3.90
2011,05,17,04,29,3.90
2011,05,17,04,30,3.90
2011,05,17,04,31,3.90
2011,05,17,04,32,3.90
2011,05,17,04,33,3.80
2011,05,17,04,34,3.60
2011,05,17,04,35,3.50
2011,05,17,04,36,3.40
2011,05,17,04,37,3.30
2011,05,17,04,38,3.30
2011,05,17,04,39,3.30
2011,05,17,04,40,3.30
2011,05,17,04,41,3.30
2011,05,17,04,42,3.30
2011,05,17,04,43,3.40
2011,05,17,04,44,3.40
2011,05,17,04,45,3.40
2011,05,17,04,46,3.50
2011,05,17,04,47,3.50
2011,05,17,04,48,3.50
2011,05,17,04,49,3.60
2011,05,17,04,50,3.60
2011,05,17,04,51,3.60
2011,05,17,04,52,3.60
2011,05,17,04,53,3.70
2011,05,17,04,54,3.70
2011,05,17,04,55,3.70
2011,05,17,04,56,3.70
2011,05,17,04,57,3.70
2011,05,17,04,58,3.60
2011,05,17,04,59,3.50
2011,05,17,05,00,3.40
2011,05,17,05,01,3.30
2011,05,17,05,02,3.30
2011,05,17,05,03,3.20
2011,05,17,05,04,3.20
2011,05,17,05,05,3.20
2011,05,17,05,06,3.20
2011,05,17,05,07,3.10
2011,05,17,05,08,3.10
2011,05,17,05,09,3.10
2011,05,17,05,10,3.10
2011,05,17,05,11,3.10
2011,05,17,05,12,3.20
2011,05,17,05,13,3.20
2011,05,17,05,14,3.30
2011,05,17,05,15,3.30
2011,05,17,05,16,3.30
2011,05,17,05,17,3.30
2011,05,17,05,18,3.10
2011,05,17,05,19,3.10
2011,05,17,05,20,3.00
2011,05,17,05,21,2.90
2011,05,17,05,22,2.90
2011,05,17,05,23,2.80
2011,05,17,05,24,2.80
2011,05,17,05,25,2.80
2011,05,17,05,26,2.70
2011,05,17,05,27,2.70
2011,05,17,05,28,2.70
2011,05,17,05,29,2.70
2011,05,17,05,30,2.70
2011,05,17,05,31,2.70
2011,05,17,05,32,2.70
2011,05,17,05,33,2.60
2011,05,17,05,34,2.60
2011,05,17,05,35,2.60
2011,05,17,05,36,2.60
2011,05,17,05,37,2.60
2011,05,17,05,38,2.60
2011,05,17,05,39,2.60
2011,05,17,05,40,2.60
2011,05,17,05,41,2.70
2011,05,17,05,42,2.70
2011,05,17,05,43,2.70
2011,05,17,05,44,2.70
2011,05,17,05,45,2.70
2011,05,17,05,46,2.70
2011,05,17,05,47,2.70
2011,05,17,05,48,2.70
2011,05,17,05,49,2.70
2011,05,17,05,50,2.70
2011,05,17,05,51,2.70
2011,05,17,05,52,2.70
2011,05,17,05,53,2.70
2011,05,17,05,54,2.70
2011,05,17,05,55,2.70
2011,05,17,05,56,2.70
2011,05,17,05,57,2.60
2011,05,17,05,58,2.60
2011,05,17,05,59,2.50
2011,05,17,06,00,2.50
2011,05,17,06,01,2.50
2011,05,17,06,02,2.50
2011,05,17,06,03,2.50
2011,05,17,06,04,2.50
2011,05,17,06,05,2.50
2011,05,17,06,06,2.50
2011,05,17,06,07,2.50
2011,05,17,06,08,2.60
2011,05,17,06,09,2.60
2011,05,17,06,10,2.60
2011,05,17,06,11,2.60
2011,05,17,06,12,2.60
2011,05,17,06,13,2.70
2011,05,17,06,14,2.70
2011,05,17,06,15,2.70
2011,05,17,06,16,2.70
2011,05,17,06,17,2.70
2011,05,17,06,18,2.70
2011,05,17,06,19,2.80
2011,05,17,06,20,2.80
2011,05,17,06,21,2.90
2011,05,17,06,22,2.90
2011,05,17,06,23,2.90
2011,05,17,06,24,2.90
2011,05,17,06,25,2.90
2011,05,17,06,26,2.90
2011,05,17,06,27,2.90
2011,05,17,06,28,2.90
2011,05,17,06,29,2.90
2011,05,17,06,30,2.90
2011,05,17,06,31,2.90
2011,05,17,06,32,2.90
2011,05,17,06,33,2.90
2011,05,17,06,34,2.90
2011,05,17,06,35,2.90
2011,05,17,06,36,2.90
2011,05,17,06,37,2.90
2011,05,17,06,38,3.10
2011,05,17,06,39,3.10
2011,05,17,06,40,3.10
2011,05,17,06,41,3.00
2011,05,17,06,42,2.90
2011,05,17,06,43,2.90
2011,05,17,06,44,2.90
2011,05,17,06,45,3.00
2011,05,17,06,46,3.10
2011,05,17,06,47,3.10
2011,05,17,06,48,3.10
2011,05,17,06,49,3.10
2011,05,17,06,50,3.20
2011,05,17,06,51,3.30
2011,05,17,06,52,3.30
2011,05,17,06,53,3.40
2011,05,17,06,54,3.50
2011,05,17,06,55,3.50
2011,05,17,06,56,3.50
2011,05,17,06,57,3.60
2011,05,17,06,58,3.60
2011,05,17,06,59,3.60
2011,05,17,07,00,3.60
2011,05,17,07,01,3.60
2011,05,17,07,02,3.70
2011,05,17,07,03,3.70
2011,05,17,07,04,3.80
2011,05,17,07,05,3.80
2011,05,17,07,06,3.90
2011,05,17,07,07,4.00
2011,05,17,07,08,4.00
2011,05,17,07,09,4.10
2011,05,17,07,10,4.20
2011,05,17,07,11,4.20
2011,05,17,07,12,4.30
2011,05,17,07,13,4.30
2011,05,17,07,14,4.40
2011,05,17,07,15,4.50
2011,05,17,07,16,4.50
2011,05,17,07,17,4.60
2011,05,17,07,18,4.70
2011,05,17,07,19,4.80
2011,05,17,07,20,4.90
2011,05,17,07,21,5.00
2011,05,17,07,22,5.10
2011,05,17,07,23,5.20
2011,05,17,07,24,5.30
2011,05,17,07,25,5.40
2011,05,17,07,26,5.40
2011,05,17,07,27,5.50
2011,05,17,07,28,5.50
2011,05,17,07,29,5.60
2011,05,17,07,30,5.70
2011,05,17,07,31,5.70
2011,05,17,07,32,5.80
2011,05,17,07,33,5.90
2011,05,17,07,34,6.00
2011,05,17,07,35,6.10
2011,05,17,07,36,6.10
2011,05,17,07,37,6.10
2011,05,17,07,38,6.10
2011,05,17,07,39,6.10
2011,05,17,07,40,6.10
2011,05,17,07,41,6.20
2011,05,17,07,42,6.20
2011,05,17,07,43,6.20
2011,05,17,07,44,6.20
2011,05,17,07,45,6.20
2011,05,17,07,46,6.20
2011,05,17,07,47,6.30
2011,05,17,07,48,6.30
2011,05,17,07,49,6.30
2011,05,17,07,50,6.30
2011,05,17,07,51,6.30
2011,05,17,07,52,6.40
2011,05,17,07,53,6.40
2011,05,17,07,54,6.50
2011,05,17,07,55,6.60
2011,05,17,07,56,6.70
2011,05,17,07,57,6.80
2011,05,17,07,58,6.90
2011,05,17,07,59,7.00
2011,05,17,08,00,7.10
2011,05,17,08,01,7.10
2011,05,17,08,02,7.20
2011,05,17,08,03,7.30
2011,05,17,08,04,7.30
2011,05,17,08,05,7.20
2011,05,17,08,06,7.10
2011,05,17,08,07,7.10
2011,05,17,08,08,7.20
2011,05,17,08,09,7.20
2011,05,17,08,10,7.30
2011,05,17,08,11,7.30
2011,05,17,08,12,7.40
2011,05,17,08,13,7.50
2011,05,17,08,14,7.60
2011,05,17,08,15,7.60
2011,05,17,08,16,7.60
2011,05,17,08,17,7.70
2011,05,17,08,18,7.80
2011,05,17,08,19,7.80
2011,05,17,08,20,7.90
2011,05,17,08,21,8.10
2011,05,17,08,22,8.20
2011,05,17,08,23,8.30
2011,05,17,08,24,8.40
2011,05,17,08,25,8.40
2011,05,17,08,26,8.30
2011,05,17,08,27,8.20
2011,05,17,08,28,8.20
2011,05,17,08,29,8.10
2011,05,17,08,30,8.00
2011,05,17,08,31,8.00
2011,05,17,08,32,7.90
2011,05,17,08,33,7.80
2011,05,17,08,34,7.80
2011,05,17,08,35,7.80
2011,05,17,08,36,7.80
2011,05,17,08,37,7.80
2011,05,17,08,38,7.80
2011,05,17,08,39,7.80
2011,05,17,08,40,7.80
2011,05,17,08,41,7.80
2011,05,17,08,42,7.80
2011,05,17,08,43,7.80
2011,05,17,08,44,7.90
2011,05,17,08,45,7.90
2011,05,17,08,46,7.90
2011,05,17,08,47,7.90
2011,05,17,08,48,7.90
2011,05,17,08,49,7.90
2011,05,17,08,50,7.90
2011,05,17,08,51,7.90
2011,05,17,08,52,8.00
2011,05,17,08,53,8.00
2011,05,17,08,54,8.00
2011,05,17,08,55,8.10
2011,05,17,08,56,8.10
2011,05,17,08,57,8.10
2011,05,17,08,58,8.10
2011,05,17,08,59,8.10
2011,05,17,09,00,8.20
2011,05,17,09,01,8.10
2011,05,17,09,02,8.10
2011,05,17,09,03,8.20
2011,05,17,09,04,8.20
2011,05,17,09,05,8.20
2011,05,17,09,06,8.20
2011,05,17,09,07,8.20
2011,05,17,09,08,8.20
2011,05,17,09,09,8.20
2011,05,17,09,10,8.20
2011,05,17,09,11,8.20
2011,05,17,09,12,8.30
2011,05,17,09,13,8.20
2011,05,17,09,14,8.20
2011,05,17,09,15,8.20
2011,05,17,09,16,8.20
2011,05,17,09,17,8.20
2011,05,17,09,18,8.20
2011,05,17,09,19,8.20
2011,05,17,09,20,8.20
2011,05,17,09,21,8.20
2011,05,17,09,22,8.20
2011,05,17,09,23,8.20
2011,05,17,09,24,8.20
2011,05,17,09,25,8.20
2011,05,17,09,26,8.20
2011,05,17,09,27,8.20
2011,05,17,09,28,8.30
2011,05,17,09,29,8.20
2011,05,17,09,30,8.20
2011,05,17,09,31,8.20
2011,05,17,09,32,8.30
2011,05,17,09,33,8.30
2011,05,17,09,34,8.30
2011,05,17,09,35,8.20
2011,05,17,09,36,8.20
2011,05,17,09,37,8.20
2011,05,17,09,38,8.20
2011,05,17,09,39,8.20
2011,05,17,09,40,8.20
2011,05,17,09,41,8.20
2011,05,17,09,42,8.20
2011,05,17,09,43,8.20
2011,05,17,09,44,8.20
2011,05,17,09,45,8.20
2011,05,17,09,46,8.20
2011,05,17,09,47,8.20
2011,05,17,09,48,8.20
2011,05,17,09,49,8.20
2011,05,17,09,50,8.20
2011,05,17,09,51,8.20
2011,05,17,09,52,8.20
2011,05,17,09,53,8.20
2011,05,17,09,54,8.20
2011,05,17,09,55,8.30
2011,05,17,09,56,8.30
2011,05,17,09,57,8.30
2011,05,17,09,58,8.30
2011,05,17,09,59,8.30
2011,05,17,10,00,8.30
2011,05,17,10,01,8.30
2011,05,17,10,02,8.40
2011,05,17,10,03,8.50
2011,05,17,10,04,8.50
2011,05,17,10,05,8.50
2011,05,17,10,06,8.50
2011,05,17,10,07,8.50
2011,05,17,10,08,8.60
2011,05,17,10,09,8.60
2011,05,17,10,10,8.70
2011,05,17,10,11,8.70
2011,05,17,10,12,8.80
2011,05,17,10,13,8.70
2011,05,17,10,14,8.70
2011,05,17,10,15,8.80
2011,05,17,10,16,8.80
2011,05,17,10,17,8.80
2011,05,17,10,18,8.80
2011,05,17,10,19,8.80
2011,05,17,10,20,8.80
2011,05,17,10,21,8.80
2011,05,17,10,22,8.70
2011,05,17,10,23,8.80
2011,05,17,10,24,8.80
2011,05,17,10,25,8.90
2011,05,17,10,26,8.80
2011,05,17,10,27,8.80
2011,05,17,10,28,8.90
2011,05,17,10,29,8.80
2011,05,17,10,30,8.80
2011,05,17,10,31,8.80
2011,05,17,10,32,9.00
2011,05,17,10,33,9.00
2011,05,17,10,34,9.00
2011,05,17,10,35,9.00
2011,05,17,10,36,9.00
2011,05,17,10,37,9.20
2011,05,17,10,38,9.20
2011,05,17,10,39,9.20
2011,05,17,10,40,9.30
2011,05,17,10,41,9.20
2011,05,17,10,42,9.20
2011,05,17,10,43,9.20
2011,05,17,10,44,9.20
2011,05,17,10,45,9.20
2011,05,17,10,46,9.20
2011,05,17,10,47,9.10
2011,05,17,10,48,9.10
2011,05,17,10,49,9.10
2011,05,17,10,50,9.10
2011,05,17,10,51,9.20
2011,05,17,10,52,9.20
2011,05,17,10,53,9.20
2011,05,17,10,54,9.20
2011,05,17,10,55,9.20
2011,05,17,10,56,9.20
2011,05,17,10,57,9.20
2011,05,17,10,58,9.20
2011,05,17,10,59,9.30
2011,05,17,11,00,9.40
2011,05,17,11,01,9.40
2011,05,17,11,02,9.50
2011,05,17,11,03,9.60
2011,05,17,11,04,9.70
2011,05,17,11,05,9.70
2011,05,17,11,06,9.70
2011,05,17,11,07,9.70
2011,05,17,11,08,9.70
2011,05,17,11,09,9.80
2011,05,17,11,10,9.80
2011,05,17,11,11,9.80
2011,05,17,11,12,9.90
2011,05,17,11,13,9.90
2011,05,17,11,14,9.80
2011,05,17,11,15,9.80
2011,05,17,11,16,9.80
2011,05,17,11,17,9.80
2011,05,17,11,18,9.70
2011,05,17,11,19,9.70
2011,05,17,11,20,9.70
2011,05,17,11,21,9.70
2011,05,17,11,22,9.70
2011,05,17,11,23,9.70
2011,05,17,11,24,9.70
2011,05,17,11,25,9.70
2011,05,17,11,26,9.70
2011,05,17,11,27,9.60
2011,05,17,11,28,9.70
2011,05,17,11,29,9.70
2011,05,17,11,30,9.70
2011,05,17,11,31,9.70
2011,05,17,11,32,9.70
2011,05,17,11,33,9.70
2011,05,17,11,34,9.70
2011,05,17,11,35,9.70
2011,05,17,11,36,9.80
2011,05,17,11,37,9.70
2011,05,17,11,38,9.70
2011,05,17,11,39,9.70
2011,05,17,11,40,9.80
2011,05,17,11,41,9.80
2011,05,17,11,42,9.70
2011,05,17,11,43,9.70
2011,05,17,11,44,9.60
2011,05,17,11,45,9.50
2011,05,17,11,46,9.50
2011,05,17,11,47,9.60
2011,05,17,11,48,9.70
2011,05,17,11,49,9.70
2011,05,17,11,50,9.80
2011,05,17,11,51,9.80
2011,05,17,11,52,9.90
2011,05,17,11,53,9.90
2011,05,17,11,54,9.90
2011,05,17,11,55,9.90
2011,05,17,11,56,9.90
2011,05,17,11,57,9.90
2011,05,17,11,58,9.90
2011,05,17,11,59,10.00
2011,05,17,12,00,10.10
2011,05,17,12,01,10.00
2011,05,17,12,02,10.10
2011,05,17,12,03,10.20
2011,05,17,12,04,10.40
2011,05,17,12,05,10.30
2011,05,17,12,06,10.30
2011,05,17,12,07,10.30
2011,05,17,12,08,10.30
2011,05,17,12,09,10.30
2011,05,17,12,10,10.20
2011,05,17,12,11,10.20
2011,05,17,12,12,10.20
2011,05,17,12,13,10.30
2011,05,17,12,14,10.40
2011,05,17,12,15,10.40
2011,05,17,12,16,10.30
2011,05,17,12,17,10.30
2011,05,17,12,18,10.30
2011,05,17,12,19,10.30
2011,05,17,12,20,10.20
2011,05,17,12,21,10.20
2011,05,17,12,22,10.40
2011,05,17,12,23,10.40
2011,05,17,12,24,10.30
2011,05,17,12,25,10.40
2011,05,17,12,26,10.40
2011,05,17,12,27,10.60
2011,05,17,12,28,10.60
2011,05,17,12,29,10.70
2011,05,17,12,30,10.80
2011,05,17,12,31,10.80
2011,05,17,12,32,10.90
2011,05,17,12,33,10.80
2011,05,17,12,34,10.70
2011,05,17,12,35,10.80
2011,05,17,12,36,10.70
2011,05,17,12,37,10.70
2011,05,17,12,38,10.60
2011,05,17,12,39,10.60
2011,05,17,12,40,10.50
2011,05,17,12,41,10.50
2011,05,17,12,42,10.50
2011,05,17,12,43,10.40
2011,05,17,12,44,10.50
2011,05,17,12,45,10.60
2011,05,17,12,46,10.70
2011,05,17,12,47,10.70
2011,05,17,12,48,10.70
2011,05,17,12,49,10.70
2011,05,17,12,50,10.70
2011,05,17,12,51,10.80
2011,05,17,12,52,10.80
2011,05,17,12,53,10.80
2011,05,17,12,54,10.90
2011,05,17,12,55,11.00
2011,05,17,12,56,11.00
2011,05,17,12,57,10.90
2011,05,17,12,58,10.90
2011,05,17,12,59,10.90
2011,05,17,13,00,10.90
2011,05,17,13,01,10.90
2011,05,17,13,02,10.80
2011,05,17,13,03,10.80
2011,05,17,13,04,10.80
2011,05,17,13,05,10.90
2011,05,17,13,06,11.00
2011,05,17,13,07,10.90
2011,05,17,13,08,10.90
2011,05,17,13,09,10.80
2011,05,17,13,10,10.90
2011,05,17,13,11,11.00
2011,05,17,13,12,11.10
2011,05,17,13,13,11.20
2011,05,17,13,14,11.30
2011,05,17,13,15,11.30
2011,05,17,13,16,11.30
2011,05,17,13,17,11.20
2011,05,17,13,18,11.10
2011,05,17,13,19,11.10
2011,05,17,13,20,11.10
2011,05,17,13,21,11.10
2011,05,17,13,22,11.00
2011,05,17,13,23,10.90
2011,05,17,13,24,10.90
2011,05,17,13,25,10.90
2011,05,17,13,26,11.00
2011,05,17,13,27,11.10
2011,05,17,13,28,11.10
2011,05,17,13,29,11.20
2011,05,17,13,30,11.20
2011,05,17,13,31,11.20
2011,05,17,13,32,11.10
2011,05,17,13,33,11.20
2011,05,17,13,34,11.20
2011,05,17,13,35,11.10
2011,05,17,13,36,11.00
2011,05,17,13,37,11.10
2011,05,17,13,38,11.10
2011,05,17,13,39,11.00
2011,05,17,13,40,10.90
2011,05,17,13,41,10.90
2011,05,17,13,42,10.90
2011,05,17,13,43,10.90
2011,05,17,13,44,10.90
2011,05,17,13,45,10.90
2011,05,17,13,46,10.90
2011,05,17,13,47,10.90
2011,05,17,13,48,11.00
2011,05,17,13,49,11.10
2011,05,17,13,50,11.10
2011,05,17,13,51,11.10
2011,05,17,13,52,11.10
2011,05,17,13,53,11.20
2011,05,17,13,54,11.30
2011,05,17,13,55,11.10
2011,05,17,13,56,10.90
2011,05,17,13,57,10.90
2011,05,17,13,58,10.90
2011,05,17,13,59,10.80
2011,05,17,14,00,10.80
2011,05,17,14,01,10.80
2011,05,17,14,02,10.80
2011,05,17,14,03,10.80
2011,05,17,14,04,10.80
2011,05,17,14,05,10.80
2011,05,17,14,06,10.70
2011,05,17,14,07,10.60
2011,05,17,14,08,10.60
2011,05,17,14,09,10.60
2011,05,17,14,10,10.70
2011,05,17,14,11,10.80
2011,05,17,14,12,10.90
2011,05,17,14,13,10.90
2011,05,17,14,14,10.90
2011,05,17,14,15,10.90
2011,05,17,14,16,10.90
2011,05,17,14,17,10.90
2011,05,17,14,18,10.80
2011,05,17,14,19,10.80
2011,05,17,14,20,10.90
2011,05,17,14,21,10.80
2011,05,17,14,22,10.90
2011,05,17,14,23,10.90
2011,05,17,14,24,11.00
2011,05,17,14,25,11.10
2011,05,17,14,26,11.20
2011,05,17,14,27,11.40
2011,05,17,14,28,11.50
2011,05,17,14,29,11.60
2011,05,17,14,30,11.60
2011,05,17,14,31,11.60
2011,05,17,14,32,11.50
2011,05,17,14,33,11.40
2011,05,17,14,34,11.40
2011,05,17,14,35,11.40
2011,05,17,14,36,11.40
2011,05,17,14,37,11.40
2011,05,17,14,38,11.40
2011,05,17,14,39,11.40
2011,05,17,14,40,11.40
2011,05,17,14,41,11.40
2011,05,17,14,42,11.50
2011,05,17,14,43,11.60
2011,05,17,14,44,11.70
2011,05,17,14,45,11.80
2011,05,17,14,46,12.00
2011,05,17,14,47,12.10
2011,05,17,14,48,12.20
2011,05,17,14,49,12.30
2011,05,17,14,50,12.40
2011,05,17,14,51,12.40
2011,05,17,14,52,12.30
2011,05,17,14,53,12.30
2011,05,17,14,54,12.30
2011,05,17,14,55,12.30
2011,05,17,14,56,12.30
2011,05,17,14,57,12.30
2011,05,17,14,58,12.20
2011,05,17,14,59,12.30
2011,05,17,15,00,12.30
2011,05,17,15,01,12.40
2011,05,17,15,02,12.50
2011,05,17,15,03,12.60
2011,05,17,15,04,12.60
2011,05,17,15,05,12.70
2011,05,17,15,06,12.80
2011,05,17,15,07,13.00
2011,05,17,15,08,13.10
2011,05,17,15,09,13.30
2011,05,17,15,10,13.50
2011,05,17,15,11,13.70
2011,05,17,15,12,13.90
2011,05,17,15,13,14.00
2011,05,17,15,14,14.20
2011,05,17,15,15,14.40
2011,05,17,15,16,14.50
2011,05,17,15,17,14.60
2011,05,17,15,18,14.60
2011,05,17,15,19,14.60
2011,05,17,15,20,14.60
2011,05,17,15,21,14.60
2011,05,17,15,22,14.60
2011,05,17,15,23,14.70
2011,05,17,15,24,14.80
2011,05,17,15,25,14.80
2011,05,17,15,26,14.80
2011,05,17,15,27,14.80
2011,05,17,15,28,14.90
2011,05,17,15,29,15.00
2011,05,17,15,30,15.10
2011,05,17,15,31,15.00
2011,05,17,15,32,15.00
2011,05,17,15,33,14.90
2011,05,17,15,34,14.90
2011,05,17,15,35,15.00
2011,05,17,15,36,15.00
2011,05,17,15,37,15.00
2011,05,17,15,38,15.00
2011,05,17,15,39,15.00
2011,05,17,15,40,15.10
2011,05,17,15,41,15.00
2011,05,17,15,42,14.80
2011,05,17,15,43,14.70
2011,05,17,15,44,14.50
2011,05,17,15,45,14.50
2011,05,17,15,46,14.60
2011,05,17,15,47,14.60
2011,05,17,15,48,14.60
2011,05,17,15,49,14.60
2011,05,17,15,50,14.70
2011,05,17,15,51,14.60
2011,05,17,15,52,14.60
2011,05,17,15,53,14.70
2011,05,17,15,54,14.80
2011,05,17,15,55,14.80
2011,05,17,15,56,14.80
2011,05,17,15,57,14.80
2011,05,17,15,58,14.80
2011,05,17,15,59,14.70
2011,05,17,16,00,14.70
2011,05,17,16,01,14.80
2011,05,17,16,02,14.80
2011,05,17,16,03,14.80
2011,05,17,16,04,14.90
2011,05,17,16,05,14.90
2011,05,17,16,06,14.90
2011,05,17,16,07,14.90
2011,05,17,16,08,15.00
2011,05,17,16,09,15.00
2011,05,17,16,10,15.00
2011,05,17,16,11,14.90
2011,05,17,16,12,14.80
2011,05,17,16,13,14.90
2011,05,17,16,14,15.00
2011,05,17,16,15,15.00
2011,05,17,16,16,15.00
2011,05,17,16,17,15.00
2011,05,17,16,18,14.90
2011,05,17,16,19,14.90
2011,05,17,16,20,15.00
2011,05,17,16,21,15.00
2011,05,17,16,22,15.00
2011,05,17,16,23,15.00
2011,05,17,16,24,14.90
2011,05,17,16,25,15.00
2011,05,17,16,26,14.90
2011,05,17,16,27,14.80
2011,05,17,16,28,14.80
2011,05,17,16,29,14.80
2011,05,17,16,30,14.80
2011,05,17,16,31,14.60
2011,05,17,16,32,14.50
2011,05,17,16,33,14.40
2011,05,17,16,34,14.40
2011,05,17,16,35,14.50
2011,05,17,16,36,14.60
2011,05,17,16,37,14.70
2011,05,17,16,38,14.70
2011,05,17,16,39,14.70
2011,05,17,16,40,14.80
2011,05,17,16,41,14.70
2011,05,17,16,42,14.70
2011,05,17,16,43,14.80
2011,05,17,16,44,14.80
2011,05,17,16,45,14.80
2011,05,17,16,46,14.90
2011,05,17,16,47,14.90
2011,05,17,16,48,14.80
2011,05,17,16,49,14.80
2011,05,17,16,50,14.80
2011,05,17,16,51,14.90
2011,05,17,16,52,14.90
2011,05,17,16,53,15.00
2011,05,17,16,54,15.00
2011,05,17,16,55,15.10
2011,05,17,16,56,15.10
2011,05,17,16,57,14.80
2011,05,17,16,58,14.60
2011,05,17,16,59,14.50
2011,05,17,17,00,14.30
2011,05,17,17,01,14.30
2011,05,17,17,02,14.20
2011,05,17,17,03,14.10
2011,05,17,17,04,13.80
2011,05,17,17,05,13.60
2011,05,17,17,06,13.40
2011,05,17,17,07,13.30
2011,05,17,17,08,13.20
2011,05,17,17,09,13.10
2011,05,17,17,10,13.00
2011,05,17,17,11,12.90
2011,05,17,17,12,13.00
2011,05,17,17,13,13.00
2011,05,17,17,14,13.00
2011,05,17,17,15,13.00
2011,05,17,17,16,12.90
2011,05,17,17,17,13.00
2011,05,17,17,18,13.10
2011,05,17,17,19,13.20
2011,05,17,17,20,13.30
2011,05,17,17,21,13.20
2011,05,17,17,22,13.00
2011,05,17,17,23,13.10
2011,05,17,17,24,13.10
2011,05,17,17,25,13.10
2011,05,17,17,26,13.20
2011,05,17,17,27,13.00
2011,05,17,17,28,12.80
2011,05,17,17,29,12.80
2011,05,17,17,30,12.60
2011,05,17,17,31,12.50
2011,05,17,17,32,12.40
2011,05,17,17,33,12.30
2011,05,17,17,34,12.20
2011,05,17,17,35,12.10
2011,05,17,17,36,12.10
2011,05,17,17,37,12.10
2011,05,17,17,38,12.10
2011,05,17,17,39,12.00
2011,05,17,17,40,12.00
2011,05,17,17,41,12.10
2011,05,17,17,42,12.10
2011,05,17,17,43,12.10
2011,05,17,17,44,12.10
2011,05,17,17,45,12.10
2011,05,17,17,46,12.10
2011,05,17,17,47,12.20
2011,05,17,17,48,12.20
2011,05,17,17,49,12.20
2011,05,17,17,50,12.30